ヒル彗星

C/2010 G2 ( Hill )

English version
Home page
Updated on March 18, 2012

---------------------------------------------------------------------

・ プロフィール

発見日 2010年4月10日
発見光度 19.2等
発見者 R. E. Hill (Catalina Sky Survey)

・ 写真集

・ 軌道要素

Epoch 2011 Aug. 27.0 TT = JDT 2455800.5
T 2011 Sept. 2.05234 TT                                 MPC
q   1.9807708            (2000.0)            P               Q
z  +0.0103904      Peri.  137.42623     +0.14259707     +0.42752805
 +/-0.0000001      Node   246.78087     +0.41765721     +0.79168217
e   0.9794190      Incl.  103.74537     +0.89734527     -0.43641621
From 3811 observations 2010 Apr. 10-2012 Mar. 13, mean residual 0".5.

・ 星図

・ 光度変化

        m1 =  7.8 + 5 logΔ + 10.0 log r  [    ,-367]  (              〜2010年 8月31日)
        m1 = 19.3 + 5 logΔ - 10   log r  [-367,-286]  (2010年 8月31日〜2010年11月20日)
        m1 =  7.8 + 5 logΔ + 10.0 log r  [-286,-120]  (2010年11月20日〜2011年 5月 5日)
        m1 =  0   + 5 logΔ + 30   log r  [-120,   0]  (2011年 5月 5日〜2011年 9月 2日)
        m1 =  4.5 + 5 logΔ + 15.0 log r  [   0,    ]  (2011年 9月 2日〜              )

---------------------------------------------------------------------

軌道要素はM.P.E.C. 2012-F11に掲載されたものです。
星図はステラナビゲータ Ver.8 (アストロアーツ) で作成したものです。
光度グラフはComet for Windowsで作成したものです。

---------------------------------------------------------------------

Copyright(C) Seiichi Yoshida (comet@aerith.net). All rights reserved.